Find Starlink 35915

NORAD ID: 66521 Int'l Des: 2025-265 Owner: SPXS Country: US Constellation: starlink operational
LEOCIRCULAR

当前视图

正在加载3D地球...

About Starlink 35915

Starlink 35915 (NORAD 66521) is a starlink constellation satellite (v2 mini) launched Nov 19, 2025 by SPXS of US. It operates in LEO, CIRCULAR orbit with a mass of 575.00 kg.

即将过境

Passes for default location (London). Set your location on the main map for personalized predictions.

高度历史

Loading altitude history...

两行轨道根数

1 66521U 25265F 26237.85017719 .00011353 00000-0 42132-3 0 9996
2 66521 43.0037 42.6687 0001784 260.1509 99.9141 15.27590678 42981
Epoch: Aug 25, 2026 • Age: 14 hours

当前状态

高度 494.5 km
远地点 / 近地点 N/A
速度 7.62 km/s
星下点 -41.66°S, 165.21°E
发射日期 Nov 19, 2025
运行时间 0.7 years
类型 internet

技术详情

分类 Payload
质量 575.00 kg
干质量 530.00 kg
总质量 575.00 kg
长度 0.30 m
直径 4.10 m
跨度 29.00 m
形状 Box + pan
制造商 SPXS
平台类型 Starlink V2MO
阶段状态 In Orbit
所有者/国家 SPXS/US

Most Searched